• In Belgien
  • Länderverzeichnis
  • Für 7 Tage
  • Wassertemperatur
  • Satellitenkarten
  • Wetterkarte
  • Widgets
  • user-avatar
    Anmelden

    Stündliche Wetter Warna

    Heute, 19 September, Mittwoch

    Zeit Temperatur Niederschläge Wind Luftdruck Luftfeuchtigkeit
    00:00 +16°C° 0 mm 3 m/S 752 mmHg 74%
    01:00 +16°C° 0 mm 2 m/S 752 mmHg 75%
    02:00 +15°C° 0 mm 2 m/S 752 mmHg 77%
    03:00 +15°C° 0 mm 2 m/S 752 mmHg 78%
    04:00 +15°C° 0 mm 2 m/S 752 mmHg 78%
    05:00 +15°C° 0 mm 2 m/S 752 mmHg 79%
    06:00 +16°C° 0 mm 3 m/S 752 mmHg 74%
    07:00 +17°C° 0 mm 3 m/S 752 mmHg 68%
    08:00 +19°C° 0 mm 3 m/S 752 mmHg 62%
    09:00 +20°C° 0 mm 4 m/S 752 mmHg 56%
    10:00 +22°C° 0 mm 4 m/S 752 mmHg 49%
    11:00 +23°C° 0 mm 4 m/S 752 mmHg 42%
    12:00 +25°C° 0 mm 4 m/S 752 mmHg 40%
    13:00 +25°C° 0 mm 4 m/S 752 mmHg 39%
    14:00 +26°C° 0 mm 4 m/S 752 mmHg 37%
    15:00 +25°C° 0 mm 4 m/S 751 mmHg 41%
    16:00 +23°C° 0 mm 4 m/S 751 mmHg 44%
    17:00 +23°C° 0 mm 5 m/S 751 mmHg 48%
    18:00 +21°C° 0 mm 4 m/S 751 mmHg 56%
    19:00 +19°C° 0 mm 4 m/S 751 mmHg 64%
    20:00 +18°C° 0 mm 4 m/S 751 mmHg 73%
    21:00 +17°C° 0 mm 3 m/S 751 mmHg 76%
    22:00 +17°C° 0 mm 3 m/S 751 mmHg 79%
    23:00 +16°C° 0 mm 3 m/S 751 mmHg 82%

    Morgen, 20 September, Donnerstag

    Zeit Temperatur Niederschläge Wind Luftdruck Luftfeuchtigkeit
    00:00 +16°C° 0 mm 2 m/S 751 mmHg 83%
    01:00 +16°C° 0 mm 2 m/S 751 mmHg 85%
    02:00 +16°C° 0 mm 2 m/S 751 mmHg 86%
    03:00 +16°C° 0 mm 3 m/S 751 mmHg 87%
    04:00 +14°C° 0 mm 3 m/S 750 mmHg 87%
    05:00 +14°C° 0 mm 3 m/S 750 mmHg 88%
    06:00 +17°C° 0 mm 3 m/S 750 mmHg 82%
    07:00 +18°C° 0 mm 4 m/S 751 mmHg 77%
    08:00 +19°C° 0 mm 4 m/S 751 mmHg 71%
    09:00 +21°C° 0 mm 4 m/S 751 mmHg 64%
    10:00 +23°C° 0 mm 5 m/S 751 mmHg 57%
    11:00 +26°C° 0 mm 5 m/S 751 mmHg 50%
    12:00 +26°C° 0 mm 5 m/S 750 mmHg 48%
    13:00 +27°C° 0 mm 5 m/S 750 mmHg 46%
    14:00 +27°C° 0 mm 5 m/S 750 mmHg 44%
    15:00 +27°C° 0 mm 5 m/S 750 mmHg 47%
    16:00 +26°C° 0 mm 5 m/S 749 mmHg 50%
    17:00 +25°C° 0 mm 5 m/S 749 mmHg 52%
    18:00 +23°C° 0 mm 4 m/S 749 mmHg 61%
    19:00 +21°C° 0 mm 4 m/S 749 mmHg 69%
    20:00 +19°C° 0 mm 3 m/S 749 mmHg 78%
    21:00 +19°C° 0 mm 3 m/S 749 mmHg 81%
    22:00 +18°C° 0 mm 3 m/S 749 mmHg 84%
    23:00 +18°C° 0 mm 2 m/S 749 mmHg 87%

    übermorgen, 21 September, Freitag

    Zeit Temperatur Niederschläge Wind Luftdruck Luftfeuchtigkeit
    00:00 +17°C° 0 mm 2 m/S 749 mmHg 87%
    01:00 +17°C° 0 mm 2 m/S 749 mmHg 88%
    02:00 +17°C° 0 mm 2 m/S 749 mmHg 88%
    03:00 +17°C° 0 mm 3 m/S 749 mmHg 88%
    04:00 +16°C° 0 mm 3 m/S 749 mmHg 88%
    05:00 +16°C° 0 mm 3 m/S 749 mmHg 88%
    06:00 +17°C° 0 mm 3 m/S 749 mmHg 81%
    07:00 +19°C° 0 mm 4 m/S 749 mmHg 75%
    08:00 +20°C° 0 mm 4 m/S 750 mmHg 68%
    09:00 +22°C° 0 mm 4 m/S 750 mmHg 60%
    10:00 +25°C° 0 mm 4 m/S 750 mmHg 51%
    11:00 +27°C° 0 mm 4 m/S 750 mmHg 43%
    12:00 +27°C° 0 mm 4 m/S 750 mmHg 42%
    13:00 +28°C° 0 mm 4 m/S 749 mmHg 40%
    14:00 +29°C° 0 mm 4 m/S 749 mmHg 39%
    15:00 +28°C° 0 mm 4 m/S 749 mmHg 42%
    16:00 +27°C° 0 mm 4 m/S 749 mmHg 46%
    17:00 +26°C° 0 mm 3 m/S 748 mmHg 49%
    18:00 +24°C° 0 mm 3 m/S 749 mmHg 58%
    19:00 +21°C° 0 mm 2 m/S 749 mmHg 67%
    20:00 +20°C° 0 mm 2 m/S 749 mmHg 76%
    21:00 +19°C° 0 mm 2 m/S 749 mmHg 79%
    22:00 +20°C° 0 mm 1 m/S 749 mmHg 82%
    23:00 +19°C° 0 mm 1 m/S 749 mmHg 85%

    22 September, Samstag

    Zeit Temperatur Niederschläge Wind Luftdruck Luftfeuchtigkeit
    00:00 +19°C° 0 mm 1 m/S 749 mmHg 85%
    01:00 +18°C° 0 mm 1 m/S 748 mmHg 85%
    02:00 +18°C° 0 mm 1 m/S 748 mmHg 85%
    03:00 +18°C° 0 mm 1 m/S 748 mmHg 84%
    04:00 +18°C° 0 mm 1 m/S 748 mmHg 84%
    05:00 +17°C° 0 mm 2 m/S 748 mmHg 83%
    06:00 +19°C° 0 mm 1 m/S 748 mmHg 76%
    07:00 +20°C° 0 mm 1 m/S 748 mmHg 68%
    08:00 +22°C° 0 mm 1 m/S 749 mmHg 61%
    09:00 +24°C° 0 mm 2 m/S 749 mmHg 53%
    10:00 +26°C° 0 mm 2 m/S 749 mmHg 44%
    11:00 +28°C° 0 mm 2 m/S 749 mmHg 36%
    12:00 +28°C° 0 mm 2 m/S 748 mmHg 34%
    13:00 +29°C° 0 mm 2 m/S 748 mmHg 33%
    14:00 +30°C° 0 mm 2 m/S 748 mmHg 31%
    15:00 +29°C° 0 mm 2 m/S 747 mmHg 35%
    16:00 +28°C° 0 mm 3 m/S 747 mmHg 38%
    17:00 +27°C° 0 mm 3 m/S 747 mmHg 42%
    18:00 +25°C° 0 mm 2 m/S 747 mmHg 49%
    19:00 +23°C° 0 mm 2 m/S 747 mmHg 57%
    20:00 +20°C° 0 mm 2 m/S 747 mmHg 65%
    21:00 +20°C° 0 mm 2 m/S 747 mmHg 66%
    22:00 +20°C° 0 mm 2 m/S 747 mmHg 68%
    23:00 +19°C° 0 mm 2 m/S 747 mmHg 70%

    23 September, Sonntag

    Zeit Temperatur Niederschläge Wind Luftdruck Luftfeuchtigkeit
    00:00 +19°C° 0 mm 2 m/S 747 mmHg 70%
    01:00 +19°C° 0 mm 2 m/S 747 mmHg 70%
    02:00 +18°C° 0 mm 2 m/S 747 mmHg 70%
    03:00 +18°C° 0 mm 2 m/S 747 mmHg 69%
    04:00 +18°C° 0 mm 2 m/S 747 mmHg 67%
    05:00 +18°C° 0 mm 2 m/S 747 mmHg 66%
    06:00 +19°C° 0 mm 2 m/S 747 mmHg 61%
    07:00 +20°C° 0 mm 2 m/S 747 mmHg 55%
    08:00 +22°C° 0 mm 3 m/S 747 mmHg 50%
    09:00 +24°C° 0 mm 3 m/S 748 mmHg 45%
    10:00 +26°C° 0 mm 4 m/S 748 mmHg 40%
    11:00 +28°C° 0 mm 4 m/S 748 mmHg 35%
    12:00 +27°C° 0 mm 5 m/S 748 mmHg 39%
    13:00 +26°C° 0 mm 5 m/S 748 mmHg 43%
    14:00 +24°C° 0 mm 6 m/S 748 mmHg 48%
    15:00 +23°C° 0 mm 6 m/S 748 mmHg 49%
    16:00 +22°C° 0 mm 6 m/S 748 mmHg 50%
    17:00 +22°C° 0 mm 7 m/S 748 mmHg 51%
    18:00 +20°C° 0 mm 6 m/S 749 mmHg 52%
    19:00 +19°C° 0 mm 6 m/S 749 mmHg 54%
    20:00 +17°C° 0 mm 5 m/S 750 mmHg 56%
    21:00 +16°C° 0 mm 5 m/S 750 mmHg 56%
    22:00 +16°C° 0 mm 5 m/S 750 mmHg 56%
    23:00 +15°C° 0 mm 5 m/S 750 mmHg 57%

    24 September, Montag

    Zeit Temperatur Niederschläge Wind Luftdruck Luftfeuchtigkeit
    00:00 +15°C° 0 mm 4 m/S 750 mmHg 58%
    01:00 +14°C° 0 mm 4 m/S 750 mmHg 60%
    02:00 +13°C° 0 mm 4 m/S 750 mmHg 61%
    03:00 +13°C° 0 mm 3 m/S 749 mmHg 62%
    04:00 +13°C° 0 mm 3 m/S 749 mmHg 64%
    05:00 +13°C° 0 mm 3 m/S 749 mmHg 65%
    06:00 +14°C° 0 mm 3 m/S 749 mmHg 62%
    07:00 +16°C° 0 mm 3 m/S 749 mmHg 60%
    08:00 +18°C° 0 mm 3 m/S 749 mmHg 58%
    09:00 +19°C° 0 mm 3 m/S 748 mmHg 55%
    10:00 +21°C° 0 mm 4 m/S 748 mmHg 52%
    11:00 +22°C° 0 mm 4 m/S 748 mmHg 50%
    12:00 +23°C° 0 mm 4 m/S 747 mmHg 50%
    13:00 +23°C° 0 mm 4 m/S 747 mmHg 50%
    14:00 +25°C° 0 mm 4 m/S 746 mmHg 50%
    15:00 +23°C° 0 mm 5 m/S 746 mmHg 54%
    16:00 +22°C° 0 mm 5 m/S 745 mmHg 59%
    17:00 +21°C° 0 mm 5 m/S 745 mmHg 64%
    18:00 +20°C° 0 mm 5 m/S 744 mmHg 69%
    19:00 +19°C° 0 mm 5 m/S 744 mmHg 75%
    20:00 +17°C° 0 mm 5 m/S 744 mmHg 80%
    21:00 +17°C° 0 mm 5 m/S 744 mmHg 82%
    22:00 +17°C° 0 mm 5 m/S 744 mmHg 84%
    23:00 +17°C° 0 mm 5 m/S 744 mmHg 86%
    Mehr zeigen